Location: A�n Tadlesse
(35.0351°N, 0.5353°E)
Time: 01:34:02
(UTC+00:00)

Cosmos 1802 Rocket - Pass Details

Date: 21 October 2019
Orbit: 955 x 1011 km, 82.9° (Epoch: 14 November)

Event Time Altitude Azimuth Distance (km) Brightness Sun altitude
Rises 19:15:56 0° 355° (N) 3,749 7.2 -25.2°
Reaches altitude 10° 19:18:29 10° 357° (N) 2,792 6.5 -25.8°
Maximum altitude 19:24:56 77° 84° (E) 1,029 3.9 -27.1°
Enters shadow 19:26:34 52° 156° (SSE) 1,222 4.2 -27.4°
